Orbital Elements at Epoch 2459200.5 (2020-Dec-17.0) TDB
Reference: JPL 20 (heliocentric ecliptic J2000)
Element | Value | Uncertainty (1-sigma) | Units |
e | .05365516310558906 | 3.9236e-08 | |
a | 2.750912603519291 | 1.5956e-08 | au |
q | 2.603311939088243 | 1.0649e-07 | au |
i | 5.12592391218595 | 3.5516e-06 | deg |
node | 225.4691127968557 | 4.4713e-05 | deg |
peri | 286.7186886359336 | 5.8363e-05 | deg |
M | 206.4342315611751 | 4.0214e-05 | deg |
tp | 2459911.395120031193 (2022-Nov-27.89512003) | 0.00018889 | TDB |
period | 1666.531843736905 4.56 | 1.4499e-05 3.97e-08 | d yr |
n | .2160174744652722 | 1.8794e-09 | deg/d |
Q | 2.89851326795034 | 1.6812e-08 | au |
|
| | Orbit Determination Parameters
Additional Information
|